Other Surface Observations
Issued by NWS Tucson, AZ

Home | Current Version | Previous Version | Text Only | Print | Product List | Glossary On
Versions: 1 2 3 4 5 6 7 8 9 10 11 12 13 14 15 16 17 18 19 20 21 22 23 24 25 26 27 28 29 30 31 32 33 34 35 36 37 38 39 40 41 42 43 44 45 46 47 48 49 50
196
SXUS55 KTWC 281715
OSOTWC

WEATHER ROUNDUP FOR SOUTHEAST ARIZONA
NATIONAL WEATHER SERVICE TUCSON AZ
1015 AM MST TUE MAR 28 2017

AZZ504>506-514-281815-
LOCATION       SKY/WX    TMP DP  RH WIND       PRES   REMARKS
TUCSON         SUNNY     61  38  42 W9        29.93R
DAVIS-MONTHAN  SUNNY     59  40  50 VRB5      29.91R
CHILDRENS PARK N/A      N/A N/A  53 E4                PIMA CO DEQ
ALVERNON/22ND  N/A       57 N/A N/A SE3               PIMA CO DEQ
CHERRY/GLENN   N/A       59 N/A N/A SE4               PIMA CO DEQ
TANGERINE      N/A       58 N/A N/A SW4               PIMA CO DEQ
CONTL RANCH    N/A       60  42  51 SW4               PIMA CO DEQ
GRANT/1ST      N/A       57  43  59 SE4               PIMA CO DEQ
CRAYCROFT/22ND N/A       57  42  58 N/A               PIMA CO DEQ
GOLFLINKS/KOLB N/A       56  41  58 SE3               PIMA CO DEQ
AJO/12TH       N/A       58  44  60 SE5               PIMA CO DEQ
FAIRGROUNDS    N/A       56 N/A N/A SW4               PIMA CO DEQ
SAGUARO        N/A       61  41  48 S3                *SABINO CYN
SAN CARLOS     N/A       61  35  38 SW3               *SAN CARLOS
GREEN VALLEY   N/A       56  42  59 S11               PIMA CO DEQ
HORSE CAMP CYN N/A       54  34  46 SW10G17           *ARAVAIPA CYN
RINCON MTNS    N/A       36  32  86 W6G16             *NR MANNING CAMP
$$

AZZ509>511-281815-
LOCATION       SKY/WX    TMP DP  RH WIND       PRES   REMARKS
SAFFORD        MOSUNNY   61  33  35 W13G23    29.85R
STRAY HORSE    N/A       36  25  64 N/A               *
TRAIL CABIN    N/A       46  29  51 NW10G17           *N OF GRANVILLE
BLACK HILLS    NOT AVBL
DRY LAKE       N/A       40  28  62 W5G12             *NATANES MTNS
NOON CREEK     N/A       54  32  43 E6G12             *PINALENO MTNS
COLUMBINE      N/A       27  22  80 SW3G11            *PINALENO MTNS
GUTHRIE        N/A       41  30  65 W10G25            *SW OF GUTHRIE
$$

AZZ502-503-513-281815-
LOCATION       SKY/WX    TMP DP  RH WIND       PRES   REMARKS
NOGALES        SUNNY     59  30  33 NW8       29.93R
SELLS          N/A       63  33  33 NE7G13            *
SASABE         N/A       58  36  44 W10G16            *ALTAR VLY
HOPKINS        N/A       41  34  75 W10G16            *SANTA RITA MTNS
CARR CYN       N/A       54  28  37 N5G10             *W OF HEREFORD
$$

AZZ507-508-512-281815-
LOCATION       SKY/WX    TMP DP  RH WIND       PRES   REMARKS
SIERRA VISTA   PTSUNNY   54  29  38 W13       29.94R
DOUGLAS        SUNNY     53  41  63 CALM      29.93S
EMPIRE MTNS    NOT AVBL
MULESHOE RANCH N/A       51  40  67 NW2               *PRESERVE
HEADQUARTERS   NOT AVBL
$$

.............................NOTES.............................
THIS IS AN AUTOMATED COLLECTIVE WITH MINIMAL QUALITY CONTROL.
PIMA CO DEQ SITES HAVE NONSTANDARD WIND SENSOR HEIGHTS.
PIMA CO DEQ SITES DO NOT REPORT WIND GUSTS.
* INDICATES WIND SENSORS LOCATED AT 20 FEET INSTEAD OF 33 FEET.
..............................KEY..............................
SKY/WX - SKY CONDITION/WEATHER
TMP    - TEMPERATURE IN FAHRENHEIT
DP     - DEWPOINT IN FAHRENHEIT
RH     - RELATIVE HUMIDITY IN PERCENT
WIND   - DIRECTION AND SPEED IN MILES PER HOUR (MPH)
VRB    - VARIABLE WIND DIRECTION
PRES   - MEAN SEA LEVEL PRESSURE IN INCHES OF MERCURY
         F - FALLING PRESSURE   R - RISING PRESSURE
         S - STEADY PRESSURE
VSB    - VISIBILITY IN MILES
HX     - HEAT INDEX IN FAHRENHEIT
WCI    - WIND CHILL INDEX IN FAHRENHEIT
N/A    - NOT AVAILABLE
AFB    - AIR FORCE BASE
         DAVIS-MONTHAN IS DAVIS-MONTHAN AIR FORCE BASE
CYN    - CANYON
MTNS   - MOUNTAINS
NCA    - NATIONAL CONSERVATION AREA
NR     - NEAR
VLY    - VALLEY
CONTL  - CONTINENTAL
PIMA CO DEQ - PIMA COUNTY DEPT OF ENVIRONMENTAL QUALITY



USA.gov is the U.S. government's official web portal to all federal, state and local government web resources and services.